DW8305 Weather Reports


time (UTC)temp
C
wind
direction
speed
KPH
gust
KPH
rain 1hr
cm
rain 24hr
cm
rain mn
cm
humidity
%
barometer
mb
20260904013217 18 270 6.4 11.3 0.00 0.05 0.00 86 1014.3
20260904012217 18 270 3.2 8.0 0.00 0.05 0.00 86 1014.5
20260904011237 18 203 4.8 6.4 0.00 0.05 0.00 86 1014.2
20260904010217 18 225 6.4 8.0 0.00 0.05 0.00 86 1014.6
20260904005217 18 270 4.8 6.4 0.00 0.05 0.00 86 1014.7
20260904004217 18 225 4.8 11.3 0.00 0.05 0.00 86 1014.9
20260904003237 18 248 6.4 12.9 0.00 0.05 0.00 86 1015.0
20260904002217 18 203 3.2 6.4 0.00 0.05 0.00 86 1015.2
20260904001237 18 225 4.8 6.4 0.00 0.05 0.00 86 1015.1
20260904000238 18 225 3.2 6.4 0.00 0.05 0.00 85 1015.2
20260903235217 18 248 3.2 8.0 0.00 0.05 0.00 85 1015.4
20260903234217 18 225 4.8 9.7 0.00 0.05 0.00 85 1015.5
20260903233217 18 248 3.2 8.0 0.00 0.05 0.00 85 1015.5
20260903232237 18 203 4.8 8.0 0.00 0.05 0.00 84 1015.6
20260903231217 18 270 1.6 4.8 0.00 0.05 0.00 84 1015.7
20260903230217 18 203 1.6 4.8 0.00 0.05 0.00 83 1015.7
20260903225237 18 270 3.2 6.4 0.00 0.05 0.00 82 1015.6
20260903224237 18 248 3.2 6.4 0.00 0.05 0.00 81 1016.0
20260903223217 18 248 4.8 6.4 0.00 0.05 0.00 80 1016.1
20260903222217 19 248 4.8 8.0 0.00 0.05 0.00 79 1015.9
20260903221217 19 225 3.2 8.0 0.00 0.05 0.00 78 1016.1
20260903220217 19 270 6.4 9.7 0.00 0.05 0.00 78 1016.3
20260903215217 19 270 8.0 11.3 0.00 0.05 0.05 78 1016.3
20260903214217 19 270 4.8 9.7 0.00 0.05 0.05 77 1016.2
20260903213217 20 270 8.0 11.3 0.00 0.05 0.05 76 1016.2
20260903212215 20 270 6.4 11.3 0.00 0.05 0.05 77 1016.1
20260903211217 20 293 4.8 9.7 0.00 0.05 0.05 77 1016.2
20260903210237 20 270 6.4 11.3 0.00 0.05 0.05 77 1016.3
20260903205217 20 270 8.0 11.3 0.00 0.05 0.05 76 1016.3
20260903204217 20 270 6.4 11.3 0.00 0.05 0.05 76 1016.4
20260903203217 20 270 8.0 11.3 0.00 0.05 0.05 76 1016.3
20260903202217 20 270 8.0 12.9 0.00 0.05 0.05 76 1016.0
20260903201218 20 270 6.4 9.7 0.00 0.05 0.05 75 1016.0
20260903200217 20 270 8.0 12.9 0.00 0.05 0.05 74 1016.1
20260903195217 20 270 6.4 11.3 0.00 0.05 0.05 74 1016.0
20260903194217 20 270 8.0 11.3 0.00 0.05 0.05 74 1015.9
20260903193217 20 270 11.3 22.5 0.00 0.05 0.05 73 1016.0
20260903192217 21 270 8.0 11.3 0.00 0.05 0.05 72 1016.0
20260903191217 21 270 11.3 16.1 0.00 0.05 0.05 71 1016.0
20260903190217 21 293 6.4 14.5 0.00 0.05 0.05 71 1016.1
20260903185218 21 270 9.7 14.5 0.00 0.05 0.05 70 1016.0
20260903184217 21 293 8.0 17.7 0.00 0.05 0.05 72 1016.0
20260903183218 21 338 4.8 8.0 0.00 0.05 0.05 76 1016.0
20260903182217 21 270 6.4 16.1 0.00 0.05 0.05 78 1015.9
20260903181237 21 270 6.4 9.7 0.00 0.05 0.05 78 1015.5
20260903180217 21 270 4.8 11.3 0.00 0.05 0.05 79 1015.5
20260903175217 21 270 11.3 19.3 0.00 0.05 0.05 80 1015.4
20260903174217 21 270 9.7 17.7 0.00 0.05 0.05 79 1015.3
20260903173217 21 270 12.9 16.1 0.00 0.05 0.05 79 1015.4
20260903172217 21 270 8.0 9.7 0.00 0.05 0.05 78 1015.2
20260903171217 21 270 12.9 22.5 0.00 0.05 0.05 77 1015.2
20260903170218 21 270 14.5 20.9 0.00 0.05 0.05 77 1015.2
20260903165237 22 248 8.0 17.7 0.00 0.05 0.05 77 1015.1
20260903164217 22 225 9.7 22.5 0.00 0.05 0.05 76 1015.1
20260903163218 22 270 12.9 19.3 0.00 0.05 0.05 75 1015.1
20260903162237 22 225 17.7 24.1 0.00 0.05 0.05 76 1014.9
20260903161217 21 270 9.7 14.5 0.00 0.05 0.05 76 1014.9
20260903160237 22 248 14.5 24.1 0.00 0.05 0.05 75 1014.9
20260903155238 22 270 14.5 27.4 0.00 0.05 0.05 74 1014.8
20260903154217 22 270 16.1 24.1 0.00 0.05 0.05 74 1014.8
20260903153237 22 270 12.9 19.3 0.00 0.05 0.05 75 1014.9
20260903152237 22 270 9.7 19.3 0.00 0.05 0.05 76 1015.0
20260903151238 22 270 11.3 19.3 0.00 0.05 0.05 75 1015.1
20260903150217 22 270 11.3 24.1 0.00 0.05 0.05 74 1015.0
20260903145217 22 248 11.3 16.1 0.00 0.05 0.05 75 1015.2
20260903144237 22 270 14.5 25.7 0.00 0.05 0.05 75 1015.1
20260903143217 22 225 8.0 14.5 0.00 0.05 0.05 76 1015.2
20260903142237 21 270 11.3 19.3 0.00 0.05 0.05 76 1015.3
20260903141217 21 293 9.7 14.5 0.00 0.05 0.05 77 1015.2
20260903140217 21 270 12.9 19.3 0.00 0.05 0.05 78 1015.3
20260903135217 21 270 17.7 35.4 0.00 0.05 0.05 79 1015.4
20260903134257 21 270 16.1 25.7 0.00 0.05 0.05 80 1015.3
20260903133217 20 248 9.7 16.1 0.00 0.05 0.05 82 1015.5
20260903132217 20 270 6.4 12.9 0.00 0.05 0.05 84 1015.5
20260903131217 20 270 6.4 9.7 0.00 0.05 0.05 84 1015.5
20260903130218 20 270 9.7 14.5 0.00 0.05 0.05 84 1015.5
20260903125217 20 225 12.9 20.9 0.00 0.05 0.05 82 1015.6
20260903124217 20 248 17.7 27.4 0.00 0.05 0.05 81 1015.6
20260903123217 20 270 16.1 24.1 0.00 0.05 0.05 80 1015.4
20260903122217 20 270 9.7 17.7 0.00 0.05 0.05 79 1015.3
20260903121217 20 270 16.1 25.7 0.00 0.05 0.05 78 1015.3
20260903120217 20 270 9.7 17.7 0.00 0.05 0.05 78 1015.2
20260903115217 20 270 8.0 12.9 0.00 0.05 0.05 78 1015.3
20260903114218 20 248 6.4 11.3 0.00 0.05 0.05 77 1015.3
20260903113217 20 270 9.7 14.5 0.00 0.05 0.05 78 1015.6
20260903112217 20 270 16.1 29.0 0.00 0.05 0.05 77 1015.5
20260903111217 20 270 9.7 16.1 0.00 0.05 0.05 78 1015.5
20260903110236 20 225 4.8 6.4 0.00 0.05 0.05 78 1015.5
20260903105217 20 293 16.1 22.5 0.00 0.05 0.05 78 1015.5
20260903104217 20 270 16.1 29.0 0.00 0.05 0.05 77 1015.6
20260903103217 20 248 14.5 22.5 0.00 0.05 0.05 77 1015.7
20260903102217 20 248 17.7 30.6 0.00 0.05 0.05 77 1015.8
20260903101217 20 225 12.9 24.1 0.00 0.05 0.05 79 1015.8
20260903100237 19 225 12.9 20.9 0.00 0.05 0.05 79 1015.9
20260903095235 19 225 11.3 24.1 0.00 0.05 0.05 80 1016.0
20260903094217 19 270 8.0 11.3 0.00 0.05 0.05 80 1016.0
20260903093217 19 248 6.4 9.7 0.00 0.05 0.05 79 1016.0
20260903092257 19 248 6.4 11.3 0.00 0.05 0.05 80 1016.0
20260903091217 18 270 9.7 16.1 0.00 0.05 0.05 80 1016.1
20260903090237 18 225 11.3 14.5 0.00 0.05 0.05 79 1016.1
20260903085217 18 270 4.8 6.4 0.00 0.05 0.05 78 1016.1
20260903084237 18 248 3.2 8.0 0.00 0.05 0.05 78 1016.1
20260903083217 18 248 12.9 22.5 0.00 0.05 0.05 79 1016.3
20260903082217 18 225 9.7 22.5 0.00 0.05 0.05 79 1016.4
20260903081237 18 270 3.2 8.0 0.03 0.05 0.05 79 1016.2
20260903080217 18 270 6.4 12.9 0.03 0.05 0.05 81 1016.2
20260903075217 18 225 11.3 16.1 0.03 0.05 0.05 82 1016.2
20260903074217 17 225 8.0 12.9 0.03 0.05 0.05 85 1016.3
20260903073235 17 225 4.8 9.7 0.05 0.05 0.05 87 1016.5
20260903072217 17 248 3.2 6.4 0.05 0.05 0.05 88 1016.5
20260903071217 16 225 3.2 4.8 0.03 0.03 0.03 90 1016.7
20260903070237 16 180 3.2 6.4 0.03 0.03 0.03 91 1016.7
20260903065217 16 180 4.8 9.7 0.03 0.03 0.03 92 1016.8
20260903064217 16 225 8.0 11.3 0.03 0.03 0.03 92 1017.2
20260903063217 16 225 8.0 9.7 0.00 0.00 0.00 92 1017.3
20260903062217 16 158 6.4 9.7 0.00 0.00 0.00 91 1016.8
20260903061217 16 248 6.4 11.3 0.00 0.00 0.00 90 1017.2
20260903060217 16 225 12.9 20.9 0.00 0.00 0.00 86 1017.2
20260903055217 16 225 11.3 16.1 0.00 0.00 0.00 85 1017.3
20260903054217 16 158 4.8 8.0 0.00 0.00 0.00 85 1017.0
20260903053217 16 225 9.7 12.9 0.00 0.00 0.00 85 1017.0
20260903052217 16 203 6.4 11.3 0.00 0.00 0.00 84 1017.1
20260903051217 17 225 4.8 9.7 0.00 0.00 0.00 84 1017.3
20260903050237 17 225 6.4 11.3 0.00 0.00 0.00 84 1017.4
20260903045217 17 225 8.0 14.5 0.00 0.00 0.00 84 1017.4
20260903044217 16 225 6.4 8.0 0.00 0.00 0.00 86 1017.4
20260903043217 16 225 3.2 8.0 0.00 0.00 0.00 89 1017.7
20260903042217 16 225 4.8 11.3 0.00 0.00 0.00 96 1017.8
20260903041217 16 225 4.8 6.4 0.00 0.00 0.00 97 1018.0
20260903040217 15 203 6.4 12.9 0.00 0.00 0.00 97 1018.1
20260903035217 15 225 4.8 8.0 0.00 0.00 0.00 97 1018.0
20260903034217 15 225 3.2 8.0 0.00 0.00 0.00 97 1018.1
20260903033217 15 225 3.2 4.8 0.00 0.00 0.00 96 1018.0
20260903032217 15 0.0 1.6 0.00 0.00 0.00 96 1017.8
20260903031217 15 113 1.6 3.2 0.00 0.00 0.00 95 1018.0
20260903030217 16 225 3.2 6.4 0.00 0.00 0.00 93 1018.4
20260903025217 16 225 3.2 4.8 0.00 0.00 0.00 83 1018.3
20260903024217 16 203 3.2 8.0 0.00 0.00 0.00 83 1018.2
20260903023217 16 225 1.6 3.2 0.00 0.00 0.00 83 1018.3
20260903022217 16 158 4.8 6.4 0.00 0.00 0.00 84 1018.5
20260903021217 16 158 1.6 4.8 0.00 0.00 0.00 84 1018.6
20260903020217 16 0.0 1.6 0.00 0.00 0.00 84 1018.8
20260903015217 16 158 1.6 4.8 0.00 0.00 0.00 83 1018.8
20260903014217 16 0.0 3.2 0.00 0.00 0.00 83 1018.9